VK6ADF Weather Reports


time (UTC)temp
F
wind
direction
speed
knots
gust
knots
rain 1hr
in
rain 24hr
in
rain mn
in
humidity
%
barometer
mb
20260505193113 58 295 2.6 4.3 0.00 0.00 0.00 59 1023.7
20260505190030 60 349 2.6 7.0 0.00 0.00 0.00 58 1023.6
20260505184532 60 149 3.5 7.0 0.00 0.00 0.00 58 1023.6
20260505183543 60 319 2.6 5.2 0.00 0.00 0.00 58 1023.5
20260505181648 60 130 2.6 7.8 0.00 0.00 0.00 57 1023.7
20260505180454 60 333 3.5 8.7 0.00 0.00 0.00 57 1023.5
20260505173028 57 158 0.0 0.9 0.00 0.00 0.00 60 1023.7
20260505171528 58 0 0.0 0.9 0.00 0.00 0.00 59 1023.7
20260505170030 58 158 0.0 1.7 0.00 0.00 0.00 59 1023.7
20260505164545 57 161 0.9 3.5 0.00 0.00 0.00 61 1023.7
20260505163028 56 162 0.0 3.5 0.00 0.00 0.00 63 1023.6
20260505161535 54 163 0.0 0.0 0.00 0.00 0.00 68 1023.7
20260505153029 53 0 0.0 0.0 0.00 0.00 0.00 72 1023.7
20260505151531 54 0 0.0 0.0 0.00 0.00 0.00 72 1023.7
20260505124536 61 0 0.0 0.0 0.00 0.00 0.00 72 1023.5
20260505123032 61 0 0.0 0.0 0.00 0.00 0.00 72 1023.3
20260505121533 62 0 0.0 0.0 0.00 0.00 0.00 71 1023.2
20260505120103 62 0 0.0 0.0 0.00 0.00 0.00 70 1023.0
20260505114534 63 0 0.0 0.0 0.00 0.00 0.00 70 1022.9
20260505113027 64 0 0.0 0.0 0.00 0.00 0.00 69 1022.8
20260505111529 64 0 0.0 0.0 0.00 0.00 0.00 69 1022.7
20260505101529 68 153 0.9 3.5 0.00 0.00 0.00 71 1022.0
20260505041719 81 336 2.6 7.0 0.00 0.00 0.00 34 1022.7
20260505040410 80 318 3.5 9.6 0.00 0.00 0.00 35 1022.9
20260505034532 79 339 5.2 7.8 0.00 0.00 0.00 36 1023.1
20260505033027 78 290 2.6 11.3 0.00 0.00 0.00 38 1023.1
20260505031530 78 228 4.3 8.7 0.00 0.00 0.00 37 1023.2
20260505030030 77 169 3.5 8.7 0.00 0.00 0.00 39 1023.4
20260505024530 76 304 3.5 11.3 0.00 0.00 0.00 41 1023.6
20260505023029 75 331 5.2 9.6 0.00 0.00 0.00 43 1023.5
20260505021535 74 319 6.1 12.2 0.00 0.00 0.00 45 1023.7
20260505020250 72 332 4.3 8.7 0.00 0.00 0.00 47 1024.1
20260505014722 70 315 4.3 8.7 0.00 0.00 0.00 50 1024.2
20260505014539 70 315 4.3 8.7 0.00 0.00 0.00 50 1024.2
20260505013029 69 328 3.5 8.7 0.00 0.00 0.00 52 1024.3
20260505011552 68 303 4.3 8.7 0.00 0.00 0.00 53 1024.3
20260505010105 66 257 3.5 9.6 0.00 0.00 0.00 56 1024.3
20260505004528 64 338 4.3 9.6 0.00 0.00 0.00 59 1024.5
20260505003128 61 339 3.5 6.1 0.00 0.00 0.00 62 1024.2
20260505003038 61 339 3.5 6.1 0.00 0.00 0.00 62 1024.2
20260505001529 59 327 3.5 7.0 0.00 0.00 0.00 65 1024.1
20260505000037 57 329 3.5 7.0 0.00 0.00 0.00 68 1023.9
20260504234531 56 314 3.5 5.2 0.00 0.00 0.00 70 1023.8
20260504231529 55 208 2.6 6.1 0.00 0.00 0.00 71 1023.7
20260504230040 54 333 2.6 4.3 0.00 0.00 0.00 72 1023.7
20260504224533 54 207 3.5 4.3 0.00 0.00 0.00 72 1023.5
20260504223031 55 323 1.7 4.3 0.00 0.00 0.00 71 1023.3
20260504221528 55 331 3.5 7.0 0.00 0.00 0.00 71 1023.2
20260504220028 55 345 2.6 4.3 0.00 0.00 0.00 71 1023.1
20260504214529 55 318 1.7 3.5 0.00 0.00 0.00 71 1023.2
20260504213033 55 24 1.7 4.3 0.00 0.00 0.00 71 1023.1
20260504211530 55 192 0.9 3.5 0.00 0.00 0.00 72 1023.0
20260504210028 55 172 0.9 1.7 0.00 0.00 0.00 71 1023.0
20260504204624 55 172 0.0 0.9 0.00 0.00 0.00 71 1023.0
20260504201530 56 172 0.0 0.9 0.00 0.00 0.00 69 1022.8
20260504200030 56 172 0.9 3.5 0.00 0.00 0.00 69 1022.9